Regional Weather Roundup
Issued by NWS

Home | Current Version | Previous Version | Graphics & Text | Print | Product List | Glossary On
Versions: 1 2 3 4 5 6 7 8 9 10 11 12 13 14 15 16 17 18 19 20 21 22 23 24 25 26 27 28 29 30 31 32 33 34 35 36 37 38 39 40 41 42 43 44 45 46 47 48 49 50
000
ASUS43 KLSX 222157
RWRMO

WEATHER SUMMARY FOR MISSOURI
NATIONAL WEATHER SERVICE SPRINGFIELD MO
500 PM CDT FRI SEP 22 2017

NOTE: "FAIR" INDICATES FEW OR NO CLOUDS BELOW 12,000 FEET WITH NO
       SIGNIFICANT WEATHER AND/OR OBSTRUCTIONS TO VISIBILITY.
       CURRENT SKY AND/OR WEATHER CONDITIONS ARE NOT AVAILABLE FOR
       CHILLICOTHE AND FARMINGTON.

MOZ001>031-035>038-043-044-053-054-222300-
...NORTHERN AND WESTERN MISSOURI...

CITY           SKY/WX    TMP DP  RH WIND       PRES   REMARKS
KANSAS CTY INT MOSUNNY   87  70  56 S17       29.93S HX  92
LEE`S SUMMIT   SUNNY     89  68  49 S16G23    29.95S HX  93
ST JOSEPH      SUNNY     89  70  53 S21       29.90S HX  94
CHILLICOTHE      N/A     90  69  50 S8G21     29.94S HX  94

$$
MOZ066>068-077>081-088>096-101>105-222300-
...SOUTHWEST MISSOURI...

CITY           SKY/WX    TMP DP  RH WIND       PRES   REMARKS
SPRINGFIELD    MOSUNNY   90  66  45 SE9       29.99S HX  92
JOPLIN         SUNNY     86  68  54 S10       29.97S
BRANSON        MOSUNNY   91  63  38 S9        30.01S HX  92

$$
MOZ032>034-039>042-045>050-055>058-069>072-222300-
...CENTRAL MISSOURI...

CITY           SKY/WX    TMP DP  RH WIND       PRES   REMARKS
COLUMBIA       NOT AVBL
JEFFERSON CITY SUNNY     91  65  41 S3        29.96F HX  93
ROLLA          SUNNY     87  64  46 S7        30.01S
SEDALIA        SUNNY     90  69  50 S13G20    29.98F HX  94
WARRENSBURG    MOSUNNY   88  68  51 SE12G18   29.95S HX  91

$$
MOZ051-052-059>065-222300-
...EAST CENTRAL MISSOURI...

CITY           SKY/WX    TMP DP  RH WIND       PRES   REMARKS
ST LOUIS INTL  MOSUNNY   94  60  32 SE12      29.98F HX  94

$$
MOZ072>076-082>087-097>100-106>115-222300-
...SOUTH CENTRAL AND SOUTHEAST MISSOURI...

CITY           SKY/WX    TMP DP  RH WIND       PRES   REMARKS
CAPE GIRARDEAU PTSUNNY   91  65  41 E7        29.98S HX  93
POPLAR BLUFF   SUNNY     92  65  40 SE6       29.97S HX  94
WEST PLAINS    PTSUNNY   90  63  40 SW8       30.02F HX  91

$$


USA.gov is the U.S. government's official web portal to all federal, state and local government web resources and services.